This is the latest recevied weather packets stored in our database for station/object N5TDX. If no packets are shown the sender has not sent any weather packets the latest 10 day(s).
| Time | Temp. | Humidity | Pressure | Rain* | Wind** | Luminosity | Snow |
|---|---|---|---|---|---|---|---|
| 1777994131 | 25° C | 72% | 1002.3 hPa | 0 mm | - | - | - |
| 1777993829 | 25.56° C | 72% | 1002.5 hPa | 0 mm | - | - | - |
| 1777993525 | 25° C | 74% | 1002.3 hPa | 0 mm | - | - | - |
| 1777993221 | 24.44° C | 74% | 1002.3 hPa | 0 mm | - | - | - |
| 1777992917 | 23.89° C | 76% | 1002.3 hPa | 0 mm | - | - | - |
| 1777992616 | 23.89° C | 77% | 1002.2 hPa | 0 mm | - | - | - |
| 1777992313 | 23.33° C | 78% | 1002.3 hPa | 0 mm | - | - | - |
| 1777992010 | 23.33° C | 77% | 1002.5 hPa | 0 mm | - | - | - |
| 1777991709 | 23.33° C | 78% | 1002.5 hPa | 0 mm | - | - | - |
| 1777991405 | 23.33° C | 79% | 1002.3 hPa | 0 mm | - | - | - |
| 1777991102 | 23.33° C | 79% | 1002.5 hPa | 0 mm | - | - | - |
| 1777990799 | 22.78° C | 79% | 1002.6 hPa | 0 mm | - | - | - |
| 1777990496 | 22.78° C | 79% | 1002.5 hPa | 0 mm | - | - | - |
| 1777989890 | 22.78° C | 80% | 1002.4 hPa | 0 mm | - | - | - |
| 1777989586 | 22.78° C | 80% | 1002.3 hPa | 0 mm | - | - | - |
| 1777989283 | 22.78° C | 80% | 1002.3 hPa | 0 mm | - | - | - |
| 1777988979 | 22.78° C | 81% | 1002.2 hPa | 0 mm | - | - | - |
| 1777988676 | 22.78° C | 81% | 1002.5 hPa | 0 mm | - | - | - |
| 1777988372 | 22.78° C | 81% | 1002.2 hPa | 0 mm | - | - | - |
| 1777988070 | 22.78° C | 80% | 1002.1 hPa | 0 mm | - | - | - |
| 1777987765 | 22.78° C | 81% | 1002 hPa | 0 mm | - | - | - |
| 1777987462 | 22.22° C | 81% | 1001.9 hPa | 0 mm | - | - | - |
| 1777987160 | 22.22° C | 82% | 1002.1 hPa | 0 mm | - | - | - |
| 1777986856 | 22.22° C | 82% | 1001.8 hPa | 0 mm | - | - | - |
| 1777986554 | 21.67° C | 83% | 1002 hPa | 0 mm | - | - | - |
* Rain latest hour (hover to see other rain measurements)
** Current wind speed in m/s (hover to see current wind gust speed)